sat.trackr.live / text

‹ back to catalog

KITA-53

NORAD 69904 · 2026-156AM

PAYLOAD ACTIVE UNKNOWN

§ Identity

Operator
Country
JPN
Launch date
2026-07-07
Launch site
AFWTR
Launch vehicle
Mass (kg)
RCS (m²)

External: N2YO · Heavens-Above · Gunter

§ Orbital elements

Epoch: 2026-09-19T04:46:37.641792Z

Period
96.53 min
Inclination
97.7428°
Eccentricity
0.0004582
Mean motion
14.91708845 rev/d
Perigee alt
589.4 km
Apogee alt
595.8 km
Semi-major
6,970.7 km
B*
1.0234e-4
RAAN
161.3758°
Arg perigee
260.1925°
Mean anomaly
99.8776°
Rev number
1,090

§ Raw data

KITA-531 69904U 26156AM  26262.19904678  .00000974  00000+0  10234-3 0  99922 69904  97.7428 161.3758 0004582 260.1925  99.8776 14.91708845 10905

JSON: /api/v1/satellites/69904 · /tle

For live sub-satellite position, see the globe view (requires WebGL).

§ Visibility from observer

Set your observer location to see the next 7 days of passes ≥ 10°. The values pass through the URL so the page stays shareable.

No JS? Fill the form by hand. The geolocation button needs JavaScript.